(39) Laetitia
ephemeris date magn radius delta ra dec elong phase
Today14 Aug 202611.93.052 AU4.007 AU10h38m+09°30'16.8°5.5°
Opposition15 Apr 202710.33.064 AU2.074 AU13h49m+01°04'168.5°3.7°
(39) Laetitia - 2026-08-14
astro.vanbuitenen.nl


 
-1 year
-1 month
-1 day
Now
+1 day
+1 month
+1 year

The interactive orbit chart above shows the body's path through the solar system and its position at the given date. Green and blue lines are shown perpendicular to the ecliptic plane: Green if the path is above the ecliptic plane, blue if it is below. (Left-click and drag to rotate the view; Right-click and drag to move the view; Use scroll wheel to zoom in our out.)

The orbital elements of Laetitia are:

            e (Eccentricity)                : 0.1137790
            a (Semimajor axis)              : 2.7692630
            i (Inclination)                 : 10.38398
            Ω (Longitude of ascending node) : 156.81888
            ω (Argument of perihelion)      : 210.09700
            M (Mean anomaly)                : 136.61094
            Epoch                           : 2026 Jun 09

            L (Longitude of perihelion)     : 186.50707
            B (Latitude of perihelion)      : -5.18583
            P (Orbital period in years)     : 4.61            
        

The light curve chart below shows the estimated development of the minor planet's magnitude.


The all-sky chart below shows the path of the minor planet over the same period as the light curve. The current position is marked yellow.





The following chart shows the path of the minor planet in the next few days. The field of view is optimized for (~10x50) binoculars and finderscopes.




Ephemerides:
Date       Time       RA (2000)    DEC (2000)    delta   radius  elong  phase   PA    magn
2026-08-14 00:00 UT   10 38 47.9   +09 30 37     4.007    3.052   16.8    5.5   109   11.9 
2026-08-14 03:10 UT   10 38 59.0   +09 29 43     4.008    3.052   16.7    5.5   109   11.9 
2026-08-15 00:00 UT   10 40 12.2   +09 23 44     4.011    3.052   16.2    5.3   109   11.8 
2026-08-16 00:00 UT   10 41 36.6   +09 16 49     4.015    3.052   15.6    5.1   109   11.8 
2026-08-17 00:00 UT   10 43 01.0   +09 09 53     4.019    3.053   15.0    4.9   108   11.8 
2026-08-18 00:00 UT   10 44 25.4   +09 02 55     4.023    3.053   14.5    4.7   108   11.8 
2026-08-19 00:00 UT   10 45 49.9   +08 55 55     4.027    3.054   13.9    4.6   108   11.8 
2026-08-20 00:00 UT   10 47 14.3   +08 48 54     4.030    3.054   13.3    4.4   108   11.8 
2026-08-21 00:00 UT   10 48 38.8   +08 41 51     4.034    3.055   12.7    4.2   108   11.8 
2026-08-22 00:00 UT   10 50 03.2   +08 34 48     4.037    3.055   12.1    4.0   107   11.8 
2026-08-23 00:00 UT   10 51 27.7   +08 27 42     4.040    3.056   11.5    3.8   107   11.8 
2026-08-24 00:00 UT   10 52 52.1   +08 20 36     4.043    3.056   10.9    3.6   107   11.8 
2026-08-25 00:00 UT   10 54 16.6   +08 13 28     4.046    3.057   10.3    3.4   106   11.8 
2026-08-26 00:00 UT   10 55 41.0   +08 06 19     4.048    3.057    9.7    3.2   106   11.8 
2026-08-27 00:00 UT   10 57 05.5   +07 59 09     4.051    3.057    9.1    3.0   105   11.7 
2026-08-28 00:00 UT   10 58 30.0   +07 51 58     4.053    3.058    8.5    2.8   104   11.7 
2026-08-29 00:00 UT   10 59 54.4   +07 44 45     4.055    3.058    8.0    2.6   104   11.7 
2026-08-30 00:00 UT   11 01 18.8   +07 37 32     4.057    3.059    7.4    2.4   103   11.7 
2026-08-31 00:00 UT   11 02 43.3   +07 30 17     4.059    3.059    6.8    2.2   102   11.7 
2026-09-01 00:00 UT   11 04 07.7   +07 23 02     4.061    3.060    6.2    2.0   101   11.7 
2026-09-02 00:00 UT   11 05 32.1   +07 15 45     4.063    3.060    5.6    1.9    99   11.7 
2026-09-03 00:00 UT   11 06 56.5   +07 08 28     4.064    3.060    5.0    1.7    97   11.7 
2026-09-04 00:00 UT   11 08 20.9   +07 01 10     4.065    3.061    4.5    1.5    95   11.6 
2026-09-05 00:00 UT   11 09 45.3   +06 53 51     4.066    3.061    3.9    1.3    92   11.6 
2026-09-06 00:00 UT   11 11 09.6   +06 46 31     4.067    3.062    3.4    1.1    88   11.6 


    Terminology:
            
    delta:  distance between minor planet and earth in AU
    radius: distance between minor planet and sun in AU
    magn:   magnitude (brightness) estimate    
    ra:     right ascension in hours (24h = 360deg)
    dec:    declination in degrees
    elong:  elongation in degrees (angle sun-earth-minor planet)    
    phase:  phase angle in degrees (angle sun-minor planet-earth)        
    AU:     Astronomical Unit (mean distance between earth and sun: 149597870.7 km
    

Orbital elements provided by the MPC (Minor Planet Center).
Calculations by a modified version of AAPlus, a C# implementation of the AA+ project by PJ Naughter from the algorithms presented in the book "Astronomical Algorithms" by Jean Meeus.
NGC2000 dso catalog and star labels from VizieR as provided by the Strasbourg astronomical Data Center.
Tycho2 catalog from the ESO archive.